Other Surface Observations
Issued by NWS

Home | Current Version | Previous Version | Text Only | Print | Product List | Glossary On
Versions: 1 2 3 4 5 6 7 8 9 10 11 12 13 14 15 16 17 18 19 20 21 22 23 24 25 26 27 28 29 30 31 32 33 34 35 36 37 38 39 40 41 42 43 44 45 46 47 48 49 50
000
SXUS52 KTAE 310511
OSOTAE
OSOTAE
North Florida/South Alabama/Southwest Georgia Weather Roundup
National Weather Service Tallahassee Florida
100 AM EDT FRI JUL 31 2015

Note: "fair" indicates few or no clouds below 12,000 feet with no
significant weather and/or obstructions to visibility.

!FLZ017-115-028-034-025-310600
...North Florida...

CITY           SKY/WX    TMP DP  RH WIND       PRES   REMARKS
TALLAHASSEE    PTCLDY    79  77  94 CALM      29.94F
APALACHICOLA   CLOUDY    84  77  79 SW5       29.93F HX  94
PERRY          CLEAR     77  77 100 CALM      29.95F
CROSS CITY       N/A     79  76  90 CALM      29.96F
JACKSONVILLE   NOT AVBL
$$

!FLZ112-006-005-002-011-310600
...Florida Panhandle...

CITY           SKY/WX    TMP DP  RH WIND       PRES   REMARKS
MARIANNA       PTCLDY    78  77  96 S5        29.92F
BONIFAY        FAIR      76  75  97 CALM      29.93F
PANAMA CITY NW FAIR      78  76  93 CALM      29.92F
TYNDALL AFB    PTCLDY    79  77  95 E3        29.93F
TYND DRONE APT FAIR      79  78  97 SE3       29.93S FOG
DE FUNIAK SPR  FAIR      77  77 100 CALM      29.95R FOG
EGLIN AFB      PTCLDY    78  76  92 CALM      29.94R
DESTIN         CLOUDY    81  79  94 CALM      29.93S HX  90
HURLBURT       CLOUDY    77  74  89 E6        29.93R
CRESTVIEW      CLOUDY    78  75  90 N3        29.94S
PENSACOLA      CLOUDY    78  75  90 NW5       29.93S
$$

!ALZ063-066-310600
...South Alabama...

CITY           SKY/WX    TMP DP  RH WIND       PRES   REMARKS
DOTHAN         MOCLDY    79  75  87 NW3       29.96F
OZARK CAIRNS   MOCLDY    77  76  96 VRB1      29.92F
FT RUCKER HELI MOCLDY    78  74  87 CALM      29.92S
RUCKER HELI 3  FAIR      77  75  93 NW2       29.94S
RUCKER HELI 2  FAIR      79  78  97 CALM      29.92S
FLORALA APT    CLOUDY    76  75  97 CALM      29.95S
ANDALUSIA      CLOUDY    80  75  84 CALM      29.93S
TROY           PTCLDY    77  74  90 CALM      29.94F
EUFALA         FAIR      78  77  96 CALM      29.92F FOG
MOBILE         CLOUDY    75  74  96 NW3       29.95F
$$

!GAZ120>161-310600
...Southwest and South Central Georgia...

CITY           SKY/WX    TMP DP  RH WIND       PRES   REMARKS
THOMASVILLE    FAIR      75  75 100 SW3       29.96S
BAINBRIDGE     PTCLDY    79  77  94 S3        29.94S
MOODY AFB      NOT AVBL
VALDOSTA       CLEAR     76  75  97 CALM      29.95F
MOULTRIE       CLEAR     77  75  94 CALM      29.96S FOG
BLAKELY        PTCLDY    79  77  94 CALM      29.94R FOG
ALBANY         PTCLDY    78  74  87 S5        29.96S
TIFTON         FAIR      78  75  92 W3        29.95S
FITZGERALD     FAIR      80  78  95 S3        29.97S
CORDELE        FAIR      82  77  86 SW3       29.94F
AMERICUS       FAIR      77  77 100 CALM      29.96F
HOMERVILLE     FAIR      79  79 100 SW3       29.95F
$$

!GMZ750-755-770-775-310600
...Coastal and Buoy Obs...

STATION/POSITION TIME  TEMP    WIND        PRES    VSBY  WAVE
                       AIR SEA DIR/SP/G                  HT/PER
                 (UTC) (F)     (DEG/KT/KT) (MB)    (MI)  (FT/S)
KEATON BEACH     0500   84     240/ 11/ 12 1014.1F
CEDAR KEY        0500   82     220/  6/  9 1014.9F
C TOWER          0500   83     200/ 10/ 12 1013.8F
APALACHICOLA BUO 0450   84 85  220/  8/ 10 1014.4F         3/ 5
PANAMA CITY BUOY 0450   85 86  270/ 12/ 14 1014.1F         3/ 4
MOBILE BUOY      0450   81 88   70/  2/  8 1014.6F         2/ 4
ORANGE BCH AL BU 0450   83 86  360/  8/ 10 1013.0R         1/ 4
$$



USA.gov is the U.S. government's official web portal to all federal, state and local government web resources and services.